Weather History for KNTD - October, 2012

Change the Weather History Date:

Sunday, October 28, 2012

  Actual Average Record
Temperature  
Mean Temperature 64 °F -  
Max Temperature 77 °F 67 °F 77 °F (2012)
Min Temperature 50 °F 49 °F 39 °F (2011)
Degree Days  
Heating Degree Days 2    
Growing Degree Days 14 (Base 50)    
Moisture  
Dew Point 54 °F    
Average Humidity 65    
Maximum Humidity 89    
Minimum Humidity 43    
Precipitation  
Precipitation 0.00 in - - ()
Sea Level Pressure  
Sea Level Pressure 29.94 in    
Wind  
Wind Speed 4 mph (SSE)    
Max Wind Speed 17 mph    
Max Gust Speed -    
Visibility 8 miles    
Events      
Averages and records for this station are not official NWS values.
T = Trace of Precipitation, MM = Missing Value Source: NWS Daily Summary

Daily Weather History Graph

Daily Weather History Graph

Search for Another Location

Airport or City:

Trip Planner

Search our weather history database for the weather conditions in past years. The results will help you decide how hot, cold, wet, or windy it might be!

Date:

Astronomy

Oct. 28, 2012 Rise Set
Actual Time 7:13 AM PDT 6:06 PM PDT
Civil Twilight 6:47 AM PDT 6:32 PM PDT
Nautical Twilight 6:17 AM PDT 7:02 PM PDT
Astronomical Twilight 5:48 AM PDT 7:31 PM PDT
Moon 5:27 PM PDT (10/28) 6:11 AM PDT (10/28)
Length of Visible Light 11h 45m
Length of Day
10h 53m
Waxing Gibbous, 99% of the Moon is Illuminated
Oct 28
Waxing Gibbous
Oct 29
Full
Nov 6
Last Quarter
Nov 13
New
Nov 20
First Quarter

Hourly Weather History & Observations

Time (PDT) Temp. Dew Point Humidity Pressure Visibility Wind Dir Wind Speed Gust Speed Precip Events Conditions
12:54 AM 60.1 °F - N/A% 29.90 in 10.0 mi Calm Calm - N/A   Clear
1:54 AM 62.1 °F - N/A% 29.91 in 10.0 mi SE 5.8 mph - N/A   Clear
2:54 AM 62.1 °F - N/A% 29.90 in 10.0 mi SE 8.1 mph - N/A   Clear
3:54 AM 55.9 °F - N/A% 29.90 in 10.0 mi East 5.8 mph - N/A   Clear
4:54 AM 54.0 °F - N/A% 29.91 in 10.0 mi NNE 3.5 mph - N/A   Clear
5:54 AM 52.0 °F 44.8 °F 76% 29.91 in 7.0 mi North 4.6 mph - N/A   Clear
6:54 AM 50.0 °F 46.9 °F 89% 29.91 in 7.0 mi NE 3.5 mph - N/A   Clear
7:54 AM 52.0 °F 45.9 °F 80% 29.93 in 7.0 mi North 5.8 mph - N/A   Clear
8:54 AM 61.0 °F 45.1 °F 56% 29.95 in 7.0 mi Calm Calm - N/A   Clear
9:54 AM 68.0 °F 44.8 °F 43% 29.95 in 7.0 mi Calm Calm - N/A   Clear
10:54 AM 73.0 °F 51.3 °F 46% 29.94 in 7.0 mi SSE 11.5 mph - N/A   Clear
11:54 AM 71.1 °F 57.6 °F 62% 29.95 in 7.0 mi South 17.3 mph - N/A   Clear
12:54 PM 71.1 °F 60.3 °F 69% 29.94 in 7.0 mi South 15.0 mph - N/A   Clear
1:54 PM 73.9 °F 54.1 °F 50% 29.93 in 7.0 mi South 10.4 mph - N/A   Clear
2:54 PM 73.0 °F 56.3 °F 56% 29.93 in 7.0 mi SSW 8.1 mph - N/A   Clear
3:54 PM 77.0 °F 59.0 °F 54% 29.93 in 7.0 mi SW 4.6 mph - N/A   Partly Cloudy
4:54 PM 77.0 °F 60.8 °F 57% 29.93 in 7.0 mi SW 3.5 mph - N/A   Partly Cloudy
5:54 PM 73.4 °F 59.0 °F 61% 29.93 in 7.0 mi Calm Calm - N/A   Partly Cloudy
6:54 PM 68.0 °F 60.8 °F 78% 29.95 in 7.0 mi Calm Calm - N/A   Partly Cloudy
7:54 PM 66.4 °F 59.0 °F 77% 29.96 in 7.0 mi Calm Calm - N/A   Clear
8:54 PM 64.4 °F 57.2 °F 77% 29.97 in 7.0 mi Calm Calm - N/A   Clear
9:54 PM 62.6 °F 53.6 °F 72% 29.99 in 7.0 mi North 4.6 mph - N/A   Clear
10:54 PM 61.0 °F 50.0 °F 67% 30.01 in 7.0 mi Calm Calm - N/A   Clear
11:54 PM 57.9 °F - N/A% 30.01 in 10.0 mi WSW 3.5 mph - N/A   Clear